Time,TemperatureF,DewpointF,PressureIn,WindDirection,WindDirectionDegrees,WindSpeedMPH,WindSpeedGustMPH,Humidity,HourlyPrecipIn,Conditions,Clouds,dailyrainin,SoftwareType,DateUTC
2013-04-29 00:00:00,58.8,49.4,29.81,SE,135,4.0,7.0,71,0.00,,,0.00,VWS V14.00,2013-04-29 05:00:00,
2013-04-29 00:05:00,58.7,49.3,29.81,SE,135,5.0,8.0,71,0.00,,,0.00,VWS V14.00,2013-04-29 05:05:00,
2013-04-29 00:10:00,58.6,49.6,29.82,SE,135,4.0,7.0,72,0.00,,,0.00,VWS V14.00,2013-04-29 05:10:00,
2013-04-29 00:15:00,58.5,49.5,29.82,SE,135,3.0,5.0,72,0.00,,,0.00,VWS V14.00,2013-04-29 05:15:00,
2013-04-29 00:20:00,58.4,49.4,29.82,SSE,158,3.0,6.0,72,0.00,,,0.00,VWS V14.00,2013-04-29 05:20:00,
2013-04-29 00:25:00,58.2,49.2,29.82,SSE,158,3.0,6.0,72,0.00,,,0.00,VWS V14.00,2013-04-29 05:25:00,
2013-04-29 00:30:00,58.1,49.1,29.82,SSE,158,4.0,7.0,72,0.00,,,0.00,VWS V14.00,2013-04-29 05:30:00,
2013-04-29 00:35:00,58.0,49.0,29.82,SSE,158,4.0,6.0,72,0.00,,,0.00,VWS V14.00,2013-04-29 05:35:00,
2013-04-29 00:40:00,58.0,49.0,29.82,SSE,158,4.0,7.0,72,0.00,,,0.00,VWS V14.00,2013-04-29 05:40:00,
2013-04-29 00:45:00,58.0,49.0,29.82,SSE,158,5.0,9.0,72,0.00,,,0.00,VWS V14.00,2013-04-29 05:45:00,
2013-04-29 00:50:00,58.0,49.0,29.83,SSE,158,6.0,10.0,72,0.00,,,0.00,VWS V14.00,2013-04-29 05:50:00,
2013-04-29 00:55:00,57.9,49.3,29.83,SSE,158,6.0,9.0,73,0.00,,,0.00,VWS V14.00,2013-04-29 05:55:00,
2013-04-29 01:00:00,57.8,49.2,29.83,SSE,158,5.0,8.0,73,0.00,,,0.00,VWS V14.00,2013-04-29 06:00:00,
2013-04-29 01:05:00,57.7,49.1,29.83,SSE,158,5.0,9.0,73,0.00,,,0.00,VWS V14.00,2013-04-29 06:05:00,
2013-04-29 01:10:00,57.6,49.0,29.83,SSE,158,5.0,10.0,73,0.00,,,0.00,VWS V14.00,2013-04-29 06:10:00,
2013-04-29 01:15:00,57.5,49.3,29.83,SSE,158,5.0,8.0,74,0.00,,,0.00,VWS V14.00,2013-04-29 06:15:00,
2013-04-29 01:20:00,57.4,49.2,29.82,SSE,158,6.0,9.0,74,0.00,,,0.00,VWS V14.00,2013-04-29 06:20:00,
2013-04-29 01:25:00,57.3,49.1,29.82,SSE,158,5.0,8.0,74,0.00,,,0.00,VWS V14.00,2013-04-29 06:25:00,
2013-04-29 01:30:00,57.2,49.0,29.82,SSE,158,5.0,8.0,74,0.00,,,0.00,VWS V14.00,2013-04-29 06:30:00,
2013-04-29 01:35:00,57.1,48.9,29.82,SSE,158,5.0,8.0,74,0.00,,,0.00,VWS V14.00,2013-04-29 06:35:00,
2013-04-29 01:40:00,57.1,48.9,29.82,SSE,158,6.0,8.0,74,0.00,,,0.00,VWS V14.00,2013-04-29 06:40:00,
2013-04-29 01:45:00,57.0,48.8,29.82,SSE,158,6.0,9.0,74,0.00,,,0.00,VWS V14.00,2013-04-29 06:45:00,
2013-04-29 01:50:00,57.0,48.8,29.82,SSE,158,6.0,9.0,74,0.00,,,0.00,VWS V14.00,2013-04-29 06:50:00,
2013-04-29 01:55:00,57.0,48.8,29.82,SSE,158,6.0,9.0,74,0.00,,,0.00,VWS V14.00,2013-04-29 06:55:00,
2013-04-29 02:00:00,57.0,48.8,29.82,SSE,158,6.0,9.0,74,0.00,,,0.00,VWS V14.00,2013-04-29 07:00:00,
2013-04-29 02:05:00,57.0,48.4,29.82,SSE,158,6.0,10.0,73,0.00,,,0.00,VWS V14.00,2013-04-29 07:05:00,
2013-04-29 02:10:00,57.0,48.4,29.82,SSE,158,5.0,9.0,73,0.00,,,0.00,VWS V14.00,2013-04-29 07:10:00,
2013-04-29 02:15:00,57.0,48.4,29.82,SSE,158,5.0,10.0,73,0.00,,,0.00,VWS V14.00,2013-04-29 07:15:00,
2013-04-29 02:20:00,57.0,48.4,29.82,SSE,158,5.0,11.0,73,0.00,,,0.00,VWS V14.00,2013-04-29 07:20:00,
2013-04-29 02:25:00,57.0,48.4,29.82,SSE,158,5.0,11.0,73,0.00,,,0.00,VWS V14.00,2013-04-29 07:25:00,
2013-04-29 02:30:00,56.9,48.3,29.81,SSE,158,6.0,9.0,73,0.00,,,0.00,VWS V14.00,2013-04-29 07:30:00,
2013-04-29 02:35:00,56.8,48.2,29.81,SSE,158,7.0,12.0,73,0.00,,,0.00,VWS V14.00,2013-04-29 07:35:00,
2013-04-29 02:40:00,56.8,48.2,29.81,SSE,158,7.0,12.0,73,0.00,,,0.00,VWS V14.00,2013-04-29 07:40:00,
2013-04-29 02:45:00,56.8,48.2,29.81,SSE,158,6.0,12.0,73,0.00,,,0.00,VWS V14.00,2013-04-29 07:45:00,
2013-04-29 02:50:00,56.9,48.3,29.81,SSE,158,7.0,11.0,73,0.00,,,0.00,VWS V14.00,2013-04-29 07:50:00,
2013-04-29 02:55:00,57.0,48.4,29.81,SSE,158,7.0,12.0,73,0.00,,,0.00,VWS V14.00,2013-04-29 07:55:00,
2013-04-29 03:00:00,57.0,48.4,29.80,SSE,158,6.0,10.0,73,0.00,,,0.00,VWS V14.00,2013-04-29 08:00:00,
2013-04-29 03:05:00,56.9,48.3,29.80,South,180,6.0,9.0,73,0.00,,,0.00,VWS V14.00,2013-04-29 08:05:00,
2013-04-29 03:10:00,56.9,48.3,29.80,SSE,158,6.0,10.0,73,0.00,,,0.00,VWS V14.00,2013-04-29 08:10:00,
2013-04-29 03:15:00,56.9,48.3,29.80,South,180,6.0,8.0,73,0.00,,,0.00,VWS V14.00,2013-04-29 08:15:00,
2013-04-29 03:20:00,56.8,48.2,29.80,South,180,6.0,9.0,73,0.00,,,0.00,VWS V14.00,2013-04-29 08:20:00,
2013-04-29 03:25:00,56.8,48.2,29.80,South,180,6.0,9.0,73,0.00,,,0.00,VWS V14.00,2013-04-29 08:25:00,
2013-04-29 03:30:00,56.8,48.6,29.80,South,180,7.0,10.0,74,0.00,,,0.00,VWS V14.00,2013-04-29 08:30:00,
2013-04-29 03:35:00,56.7,48.5,29.80,South,180,7.0,10.0,74,0.00,,,0.00,VWS V14.00,2013-04-29 08:35:00,
2013-04-29 03:40:00,56.5,48.3,29.80,South,180,6.0,10.0,74,0.00,,,0.00,VWS V14.00,2013-04-29 08:40:00,
2013-04-29 03:45:00,56.4,48.6,29.80,South,180,6.0,8.0,75,0.00,,,0.00,VWS V14.00,2013-04-29 08:45:00,
2013-04-29 03:50:00,56.2,48.4,29.80,South,180,6.0,8.0,75,0.00,,,0.00,VWS V14.00,2013-04-29 08:50:00,
2013-04-29 03:55:00,56.2,48.4,29.80,South,180,7.0,10.0,75,0.00,,,0.00,VWS V14.00,2013-04-29 08:55:00,
2013-04-29 04:00:00,56.2,48.8,29.80,South,180,7.0,11.0,76,0.00,,,0.00,VWS V14.00,2013-04-29 09:00:00,
2013-04-29 04:05:00,56.1,48.7,29.80,South,180,7.0,10.0,76,0.00,,,0.00,VWS V14.00,2013-04-29 09:05:00,
2013-04-29 04:10:00,56.2,48.8,29.80,South,180,6.0,9.0,76,0.00,,,0.00,VWS V14.00,2013-04-29 09:10:00,
2013-04-29 04:15:00,56.2,48.8,29.80,South,180,6.0,9.0,76,0.00,,,0.00,VWS V14.00,2013-04-29 09:15:00,
2013-04-29 04:20:00,56.3,49.2,29.80,South,180,7.0,10.0,77,0.00,,,0.00,VWS V14.00,2013-04-29 09:20:00,
2013-04-29 04:25:00,56.4,49.3,29.80,South,180,6.0,10.0,77,0.00,,,0.00,VWS V14.00,2013-04-29 09:25:00,
2013-04-29 04:30:00,56.6,49.1,29.80,South,180,6.0,9.0,76,0.00,,,0.00,VWS V14.00,2013-04-29 09:30:00,
2013-04-29 04:35:00,56.7,49.2,29.80,South,180,6.0,11.0,76,0.00,,,0.00,VWS V14.00,2013-04-29 09:35:00,
2013-04-29 04:40:00,56.8,49.3,29.81,South,180,7.0,11.0,76,0.00,,,0.00,VWS V14.00,2013-04-29 09:40:00,
2013-04-29 04:45:00,56.9,49.4,29.81,South,180,7.0,11.0,76,0.00,,,0.00,VWS V14.00,2013-04-29 09:45:00,
2013-04-29 04:50:00,56.9,49.4,29.81,South,180,7.0,10.0,76,0.00,,,0.00,VWS V14.00,2013-04-29 09:50:00,
2013-04-29 04:55:00,56.9,49.4,29.81,South,180,6.0,12.0,76,0.00,,,0.00,VWS V14.00,2013-04-29 09:55:00,
2013-04-29 05:00:00,56.8,49.3,29.81,South,180,6.0,10.0,76,0.00,,,0.00,VWS V14.00,2013-04-29 10:00:00,
2013-04-29 05:05:00,56.8,49.3,29.81,South,180,6.0,11.0,76,0.00,,,0.00,VWS V14.00,2013-04-29 10:05:00,
2013-04-29 05:10:00,56.7,49.2,29.81,South,180,6.0,8.0,76,0.00,,,0.00,VWS V14.00,2013-04-29 10:10:00,
2013-04-29 05:15:00,56.7,49.2,29.81,South,180,6.0,9.0,76,0.00,,,0.00,VWS V14.00,2013-04-29 10:15:00,
2013-04-29 05:20:00,56.6,49.1,29.81,South,180,6.0,9.0,76,0.00,,,0.00,VWS V14.00,2013-04-29 10:20:00,
2013-04-29 05:25:00,56.5,49.4,29.81,South,180,7.0,9.0,77,0.00,,,0.00,VWS V14.00,2013-04-29 10:25:00,
2013-04-29 05:30:00,56.3,49.2,29.81,South,180,6.0,10.0,77,0.00,,,0.00,VWS V14.00,2013-04-29 10:30:00,
2013-04-29 05:35:00,56.1,49.0,29.81,South,180,6.0,10.0,77,0.00,,,0.00,VWS V14.00,2013-04-29 10:35:00,
2013-04-29 05:40:00,55.9,49.2,29.80,South,180,7.0,10.0,78,0.00,,,0.00,VWS V14.00,2013-04-29 10:40:00,
2013-04-29 05:45:00,55.8,49.0,29.80,South,180,6.0,10.0,78,0.00,,,0.00,VWS V14.00,2013-04-29 10:45:00,
2013-04-29 05:50:00,55.6,48.9,29.81,South,180,6.0,9.0,78,0.00,,,0.00,VWS V14.00,2013-04-29 10:50:00,
2013-04-29 05:55:00,55.5,49.1,29.81,South,180,6.0,9.0,79,0.00,,,0.00,VWS V14.00,2013-04-29 10:55:00,
2013-04-29 06:00:00,55.5,49.1,29.81,South,180,4.0,9.0,79,0.00,,,0.00,VWS V14.00,2013-04-29 11:00:00,
2013-04-29 06:05:00,55.4,49.0,29.81,South,180,5.0,9.0,79,0.00,,,0.00,VWS V14.00,2013-04-29 11:05:00,
2013-04-29 06:10:00,55.4,49.0,29.81,South,180,5.0,8.0,79,0.00,,,0.00,VWS V14.00,2013-04-29 11:10:00,
2013-04-29 06:15:00,55.4,49.0,29.81,South,180,5.0,9.0,79,0.00,,,0.00,VWS V14.00,2013-04-29 11:15:00,
2013-04-29 06:20:00,55.4,49.0,29.82,South,180,5.0,8.0,79,0.00,,,0.00,VWS V14.00,2013-04-29 11:20:00,
2013-04-29 06:25:00,55.5,49.4,29.82,South,180,5.0,7.0,80,0.00,,,0.00,VWS V14.00,2013-04-29 11:25:00,
2013-04-29 06:30:00,55.6,49.5,29.82,South,180,5.0,7.0,80,0.00,,,0.00,VWS V14.00,2013-04-29 11:30:00,
2013-04-29 06:35:00,55.7,49.6,29.82,South,180,5.0,7.0,80,0.00,,,0.00,VWS V14.00,2013-04-29 11:35:00,
2013-04-29 06:40:00,55.8,49.7,29.82,South,180,5.0,8.0,80,0.00,,,0.00,VWS V14.00,2013-04-29 11:40:00,
2013-04-29 06:45:00,55.9,49.8,29.82,South,180,4.0,7.0,80,0.00,,,0.00,VWS V14.00,2013-04-29 11:45:00,
2013-04-29 06:50:00,56.0,49.9,29.82,South,180,4.0,7.0,80,0.00,,,0.00,VWS V14.00,2013-04-29 11:50:00,
2013-04-29 06:55:00,56.1,50.0,29.82,South,180,4.0,7.0,80,0.00,,,0.00,VWS V14.00,2013-04-29 11:55:00,
2013-04-29 07:00:00,56.2,50.1,29.82,South,180,4.0,7.0,80,0.00,,,0.00,VWS V14.00,2013-04-29 12:00:00,
2013-04-29 07:05:00,56.5,50.4,29.82,South,180,5.0,7.0,80,0.00,,,0.00,VWS V14.00,2013-04-29 12:05:00,
2013-04-29 07:10:00,56.8,50.7,29.83,South,180,5.0,8.0,80,0.00,,,0.00,VWS V14.00,2013-04-29 12:10:00,
2013-04-29 07:15:00,57.1,51.0,29.83,South,180,5.0,8.0,80,0.00,,,0.00,VWS V14.00,2013-04-29 12:15:00,
2013-04-29 07:20:00,57.4,51.0,29.83,South,180,4.0,7.0,79,0.00,,,0.00,VWS V14.00,2013-04-29 12:20:00,
2013-04-29 07:25:00,57.8,51.7,29.83,SSE,158,5.0,7.0,80,0.00,,,0.00,VWS V14.00,2013-04-29 12:25:00,
2013-04-29 07:30:00,58.3,51.8,29.83,SSE,158,6.0,10.0,79,0.00,,,0.00,VWS V14.00,2013-04-29 12:30:00,
2013-04-29 07:35:00,58.7,51.9,29.83,South,180,7.0,12.0,78,0.00,,,0.00,VWS V14.00,2013-04-29 12:35:00,
2013-04-29 07:40:00,59.0,52.2,29.83,South,180,7.0,11.0,78,0.00,,,0.00,VWS V14.00,2013-04-29 12:40:00,
2013-04-29 07:45:00,59.1,52.3,29.83,South,180,5.0,9.0,78,0.00,,,0.00,VWS V14.00,2013-04-29 12:45:00,
2013-04-29 07:50:00,59.3,52.1,29.83,South,180,5.0,10.0,77,0.00,,,0.00,VWS V14.00,2013-04-29 12:50:00,
2013-04-29 07:55:00,59.4,52.2,29.83,South,180,5.0,11.0,77,0.00,,,0.00,VWS V14.00,2013-04-29 12:55:00,
2013-04-29 08:00:00,59.8,52.6,29.83,South,180,6.0,10.0,77,0.00,,,0.00,VWS V14.00,2013-04-29 13:00:00,
2013-04-29 08:05:00,60.2,53.0,29.83,South,180,6.0,11.0,77,0.00,,,0.00,VWS V14.00,2013-04-29 13:05:00,
2013-04-29 08:10:00,60.6,53.0,29.83,South,180,6.0,9.0,76,0.00,,,0.00,VWS V14.00,2013-04-29 13:10:00,
2013-04-29 08:15:00,61.0,53.4,29.82,South,180,4.0,10.0,76,0.00,,,0.00,VWS V14.00,2013-04-29 13:15:00,
2013-04-29 08:20:00,61.6,53.6,29.82,SSW,202,5.0,10.0,75,0.00,,,0.00,VWS V14.00,2013-04-29 13:20:00,
2013-04-29 08:25:00,62.1,53.7,29.82,SSW,202,5.0,10.0,74,0.00,,,0.00,VWS V14.00,2013-04-29 13:25:00,
2013-04-29 08:30:00,62.7,54.3,29.82,South,180,5.0,11.0,74,0.00,,,0.00,VWS V14.00,2013-04-29 13:30:00,
2013-04-29 08:35:00,63.3,54.9,29.82,South,180,4.0,8.0,74,0.00,,,0.00,VWS V14.00,2013-04-29 13:35:00,
2013-04-29 08:40:00,63.7,54.9,29.82,South,180,7.0,12.0,73,0.00,,,0.00,VWS V14.00,2013-04-29 13:40:00,
2013-04-29 08:45:00,64.0,54.8,29.82,SSW,202,7.0,13.0,72,0.00,,,0.00,VWS V14.00,2013-04-29 13:45:00,
2013-04-29 08:50:00,64.3,55.1,29.82,SSW,202,6.0,11.0,72,0.00,,,0.00,VWS V14.00,2013-04-29 13:50:00,
2013-04-29 08:55:00,64.7,55.5,29.82,SSW,202,7.0,14.0,72,0.00,,,0.00,VWS V14.00,2013-04-29 13:55:00,
2013-04-29 09:00:00,64.9,55.7,29.82,South,180,6.0,14.0,72,0.00,,,0.00,VWS V14.00,2013-04-29 14:00:00,
2013-04-29 09:05:00,65.2,56.0,29.81,SSW,202,9.0,16.0,72,0.00,,,0.00,VWS V14.00,2013-04-29 14:05:00,
2013-04-29 09:10:00,65.6,56.3,29.81,SSW,202,10.0,17.0,72,0.00,,,0.00,VWS V14.00,2013-04-29 14:10:00,
2013-04-29 09:15:00,66.0,57.1,29.81,South,180,5.0,17.0,73,0.00,,,0.00,VWS V14.00,2013-04-29 14:15:00,
2013-04-29 09:20:00,66.3,57.4,29.81,South,180,8.0,12.0,73,0.00,,,0.00,VWS V14.00,2013-04-29 14:20:00,
2013-04-29 09:25:00,66.8,57.5,29.81,South,180,7.0,12.0,72,0.00,,,0.00,VWS V14.00,2013-04-29 14:25:00,
2013-04-29 09:30:00,67.5,58.2,29.81,South,180,6.0,11.0,72,0.00,,,0.00,VWS V14.00,2013-04-29 14:30:00,
2013-04-29 09:35:00,68.3,58.2,29.80,SSW,202,7.0,14.0,70,0.00,,,0.00,VWS V14.00,2013-04-29 14:35:00,
2013-04-29 09:40:00,69.2,59.0,29.80,SSW,202,6.0,12.0,70,0.00,,,0.00,VWS V14.00,2013-04-29 14:40:00,
2013-04-29 09:45:00,69.8,59.2,29.80,South,180,6.0,12.0,69,0.00,,,0.00,VWS V14.00,2013-04-29 14:45:00,
2013-04-29 09:50:00,70.5,59.4,29.80,SSW,202,9.0,17.0,68,0.00,,,0.00,VWS V14.00,2013-04-29 14:50:00,
2013-04-29 09:55:00,70.8,60.1,29.79,South,180,10.0,16.0,69,0.00,,,0.00,VWS V14.00,2013-04-29 14:55:00,
2013-04-29 10:00:00,70.9,59.8,29.80,South,180,10.0,17.0,68,0.00,,,0.00,VWS V14.00,2013-04-29 15:00:00,
2013-04-29 10:05:00,71.2,60.5,29.80,South,180,8.0,17.0,69,0.00,,,0.00,VWS V14.00,2013-04-29 15:05:00,
2013-04-29 10:10:00,71.5,60.4,29.79,SSW,202,7.0,18.0,68,0.00,,,0.00,VWS V14.00,2013-04-29 15:10:00,
2013-04-29 10:15:00,72.1,60.1,29.79,South,180,8.0,16.0,66,0.00,,,0.00,VWS V14.00,2013-04-29 15:15:00,
2013-04-29 10:20:00,72.0,60.5,29.79,SW,225,11.0,20.0,67,0.00,,,0.00,VWS V14.00,2013-04-29 15:20:00,
2013-04-29 10:25:00,72.2,60.2,29.79,SSW,202,9.0,17.0,66,0.00,,,0.00,VWS V14.00,2013-04-29 15:25:00,
2013-04-29 10:30:00,72.7,61.1,29.79,South,180,6.0,17.0,67,0.00,,,0.00,VWS V14.00,2013-04-29 15:30:00,
2013-04-29 10:35:00,73.1,60.7,29.79,SSW,202,7.0,17.0,65,0.00,,,0.00,VWS V14.00,2013-04-29 15:35:00,
2013-04-29 10:40:00,73.5,61.5,29.78,SSW,202,6.0,18.0,66,0.00,,,0.00,VWS V14.00,2013-04-29 15:40:00,
2013-04-29 10:45:00,73.5,60.2,29.78,SW,225,10.0,19.0,63,0.00,,,0.00,VWS V14.00,2013-04-29 15:45:00,
2013-04-29 10:50:00,74.1,61.6,29.78,SSW,202,5.0,15.0,65,0.00,,,0.00,VWS V14.00,2013-04-29 15:50:00,
2013-04-29 10:55:00,74.9,61.5,29.78,SSW,202,6.0,16.0,63,0.00,,,0.00,VWS V14.00,2013-04-29 15:55:00,
2013-04-29 11:00:00,75.1,60.8,29.78,SW,225,6.0,15.0,61,0.00,,,0.00,VWS V14.00,2013-04-29 16:00:00,
2013-04-29 11:05:00,75.3,60.9,29.77,SSW,202,7.0,17.0,61,0.00,,,0.00,VWS V14.00,2013-04-29 16:05:00,
2013-04-29 11:10:00,74.8,60.9,29.77,SSW,202,11.0,18.0,62,0.00,,,0.00,VWS V14.00,2013-04-29 16:10:00,
2013-04-29 11:15:00,74.7,61.7,29.77,SSW,202,7.0,18.0,64,0.00,,,0.00,VWS V14.00,2013-04-29 16:15:00,
2013-04-29 11:20:00,74.9,61.0,29.77,South,180,9.0,18.0,62,0.00,,,0.00,VWS V14.00,2013-04-29 16:20:00,
2013-04-29 11:25:00,74.9,61.5,29.77,South,180,9.0,17.0,63,0.00,,,0.00,VWS V14.00,2013-04-29 16:25:00,
2013-04-29 11:30:00,74.9,61.9,29.77,South,180,10.0,16.0,64,0.00,,,0.00,VWS V14.00,2013-04-29 16:30:00,
2013-04-29 11:35:00,75.5,61.1,29.77,SSW,202,9.0,19.0,61,0.00,,,0.00,VWS V14.00,2013-04-29 16:35:00,
2013-04-29 11:40:00,75.7,60.8,29.77,SSW,202,9.0,17.0,60,0.00,,,0.00,VWS V14.00,2013-04-29 16:40:00,
2013-04-29 11:45:00,75.5,60.7,29.76,South,180,9.0,18.0,60,0.00,,,0.00,VWS V14.00,2013-04-29 16:45:00,
2013-04-29 11:50:00,75.9,61.0,29.76,SSW,202,8.0,16.0,60,0.00,,,0.00,VWS V14.00,2013-04-29 16:50:00,
2013-04-29 11:55:00,76.4,62.0,29.76,South,180,10.0,17.0,61,0.00,,,0.00,VWS V14.00,2013-04-29 16:55:00,
2013-04-29 12:00:00,76.9,61.5,29.75,SSW,202,9.0,19.0,59,0.00,,,0.00,VWS V14.00,2013-04-29 17:00:00,
2013-04-29 12:05:00,76.8,61.9,29.75,South,180,8.0,16.0,60,0.00,,,0.00,VWS V14.00,2013-04-29 17:05:00,
2013-04-29 12:10:00,76.2,61.3,29.75,South,180,13.0,20.0,60,0.00,,,0.00,VWS V14.00,2013-04-29 17:10:00,
2013-04-29 12:15:00,76.6,62.6,29.75,South,180,9.0,15.0,62,0.00,,,0.00,VWS V14.00,2013-04-29 17:15:00,
2013-04-29 12:20:00,77.3,62.8,29.75,South,180,8.0,16.0,61,0.00,,,0.00,VWS V14.00,2013-04-29 17:20:00,
2013-04-29 12:25:00,77.3,62.3,29.75,South,180,11.0,18.0,60,0.00,,,0.00,VWS V14.00,2013-04-29 17:25:00,
2013-04-29 12:30:00,77.5,62.5,29.74,South,180,8.0,16.0,60,0.00,,,0.00,VWS V14.00,2013-04-29 17:30:00,
2013-04-29 12:35:00,77.6,62.6,29.74,South,180,12.0,18.0,60,0.00,,,0.00,VWS V14.00,2013-04-29 17:35:00,
2013-04-29 12:40:00,77.7,62.2,29.74,South,180,11.0,18.0,59,0.00,,,0.00,VWS V14.00,2013-04-29 17:40:00,
2013-04-29 12:45:00,78.0,63.5,29.74,South,180,9.0,16.0,61,0.00,,,0.00,VWS V14.00,2013-04-29 17:45:00,
2013-04-29 12:50:00,78.4,63.4,29.73,South,180,9.0,15.0,60,0.00,,,0.00,VWS V14.00,2013-04-29 17:50:00,
2013-04-29 12:55:00,78.9,63.8,29.73,South,180,9.0,17.0,60,0.00,,,0.00,VWS V14.00,2013-04-29 17:55:00,
2013-04-29 13:00:00,78.8,62.8,29.73,South,180,10.0,19.0,58,0.00,,,0.00,VWS V14.00,2013-04-29 18:00:00,
2013-04-29 13:05:00,78.8,62.8,29.73,South,180,9.0,16.0,58,0.00,,,0.00,VWS V14.00,2013-04-29 18:05:00,
2013-04-29 13:10:00,78.9,63.4,29.73,South,180,10.0,16.0,59,0.00,,,0.00,VWS V14.00,2013-04-29 18:10:00,
2013-04-29 13:15:00,78.9,62.9,29.72,South,180,10.0,22.0,58,0.00,,,0.00,VWS V14.00,2013-04-29 18:15:00,
2013-04-29 13:20:00,79.3,63.7,29.72,South,180,9.0,17.0,59,0.00,,,0.00,VWS V14.00,2013-04-29 18:20:00,
2013-04-29 13:25:00,79.7,62.6,29.72,South,180,9.0,17.0,56,0.00,,,0.00,VWS V14.00,2013-04-29 18:25:00,
2013-04-29 13:30:00,79.9,63.3,29.72,South,180,11.0,19.0,57,0.00,,,0.00,VWS V14.00,2013-04-29 18:30:00,
2013-04-29 13:35:00,80.3,63.7,29.72,South,180,9.0,18.0,57,0.00,,,0.00,VWS V14.00,2013-04-29 18:35:00,
2013-04-29 13:40:00,80.2,63.1,29.71,SSW,202,11.0,18.0,56,0.00,,,0.00,VWS V14.00,2013-04-29 18:40:00,
2013-04-29 13:45:00,80.3,62.7,29.71,South,180,9.0,16.0,55,0.00,,,0.00,VWS V14.00,2013-04-29 18:45:00,
2013-04-29 13:50:00,80.9,62.7,29.71,South,180,10.0,17.0,54,0.00,,,0.00,VWS V14.00,2013-04-29 18:50:00,
2013-04-29 13:55:00,81.1,62.9,29.71,South,180,9.0,15.0,54,0.00,,,0.00,VWS V14.00,2013-04-29 18:55:00,
2013-04-29 14:00:00,81.1,62.9,29.70,South,180,10.0,19.0,54,0.00,,,0.00,VWS V14.00,2013-04-29 19:00:00,
2013-04-29 14:05:00,81.3,62.5,29.70,South,180,8.0,16.0,53,0.00,,,0.00,VWS V14.00,2013-04-29 19:05:00,
2013-04-29 14:10:00,81.4,63.2,29.70,South,180,9.0,19.0,54,0.00,,,0.00,VWS V14.00,2013-04-29 19:10:00,
2013-04-29 14:15:00,81.2,63.5,29.70,South,180,9.0,18.0,55,0.00,,,0.00,VWS V14.00,2013-04-29 19:15:00,
2013-04-29 14:20:00,81.7,64.0,29.70,South,180,7.0,13.0,55,0.00,,,0.00,VWS V14.00,2013-04-29 19:20:00,
2013-04-29 14:25:00,81.9,62.6,29.70,SSE,158,12.0,19.0,52,0.00,,,0.00,VWS V14.00,2013-04-29 19:25:00,
2013-04-29 14:30:00,81.8,63.5,29.70,SSE,158,11.0,19.0,54,0.00,,,0.00,VWS V14.00,2013-04-29 19:30:00,
2013-04-29 14:35:00,81.8,63.0,29.70,South,180,14.0,21.0,53,0.00,,,0.00,VWS V14.00,2013-04-29 19:35:00,
2013-04-29 14:40:00,81.8,64.1,29.69,South,180,10.0,19.0,55,0.00,,,0.00,VWS V14.00,2013-04-29 19:40:00,
2013-04-29 14:45:00,81.9,63.1,29.69,SSE,158,10.0,18.0,53,0.00,,,0.00,VWS V14.00,2013-04-29 19:45:00,
2013-04-29 14:50:00,82.0,63.2,29.69,South,180,13.0,22.0,53,0.00,,,0.00,VWS V14.00,2013-04-29 19:50:00,
2013-04-29 14:55:00,82.0,63.7,29.68,South,180,12.0,18.0,54,0.00,,,0.00,VWS V14.00,2013-04-29 19:55:00,
2013-04-29 15:00:00,82.1,64.3,29.69,South,180,12.0,21.0,55,0.00,,,0.00,VWS V14.00,2013-04-29 20:00:00,
2013-04-29 15:05:00,82.2,62.8,29.68,South,180,10.0,17.0,52,0.00,,,0.00,VWS V14.00,2013-04-29 20:05:00,
2013-04-29 15:10:00,82.6,63.2,29.68,South,180,9.0,17.0,52,0.00,,,0.00,VWS V14.00,2013-04-29 20:10:00,
2013-04-29 15:15:00,82.7,63.3,29.68,South,180,11.0,18.0,52,0.00,,,0.00,VWS V14.00,2013-04-29 20:15:00,
2013-04-29 15:20:00,82.7,64.4,29.68,South,180,9.0,16.0,54,0.00,,,0.00,VWS V14.00,2013-04-29 20:20:00,
2013-04-29 15:25:00,83.0,63.0,29.68,South,180,11.0,21.0,51,0.00,,,0.00,VWS V14.00,2013-04-29 20:25:00,
2013-04-29 15:30:00,82.7,63.8,29.67,South,180,13.0,20.0,53,0.00,,,0.00,VWS V14.00,2013-04-29 20:30:00,
2013-04-29 15:35:00,82.8,62.3,29.67,South,180,13.0,21.0,50,0.00,,,0.00,VWS V14.00,2013-04-29 20:35:00,
2013-04-29 15:40:00,82.8,62.8,29.67,South,180,12.0,20.0,51,0.00,,,0.00,VWS V14.00,2013-04-29 20:40:00,
2013-04-29 15:45:00,83.0,63.0,29.67,South,180,9.0,16.0,51,0.00,,,0.00,VWS V14.00,2013-04-29 20:45:00,
2013-04-29 15:50:00,83.3,63.3,29.67,South,180,9.0,16.0,51,0.00,,,0.00,VWS V14.00,2013-04-29 20:50:00,
2013-04-29 15:55:00,83.2,62.7,29.67,SSW,202,11.0,17.0,50,0.00,,,0.00,VWS V14.00,2013-04-29 20:55:00,
2013-04-29 16:00:00,83.1,62.5,29.66,South,180,9.0,16.0,50,0.00,,,0.00,VWS V14.00,2013-04-29 21:00:00,
2013-04-29 16:05:00,83.3,62.2,29.66,SSW,202,10.0,17.0,49,0.00,,,0.00,VWS V14.00,2013-04-29 21:05:00,
2013-04-29 16:10:00,83.4,63.4,29.66,South,180,9.0,18.0,51,0.00,,,0.00,VWS V14.00,2013-04-29 21:10:00,
2013-04-29 16:15:00,83.2,62.7,29.66,South,180,10.0,21.0,50,0.00,,,0.00,VWS V14.00,2013-04-29 21:15:00,
2013-04-29 16:20:00,83.2,63.8,29.66,South,180,8.0,17.0,52,0.00,,,0.00,VWS V14.00,2013-04-29 21:20:00,
2013-04-29 16:25:00,83.1,61.4,29.66,South,180,11.0,20.0,48,0.00,,,0.00,VWS V14.00,2013-04-29 21:25:00,
2013-04-29 16:30:00,82.8,62.3,29.66,South,180,11.0,18.0,50,0.00,,,0.00,VWS V14.00,2013-04-29 21:30:00,
2013-04-29 16:35:00,82.5,61.4,29.65,South,180,13.0,20.0,49,0.00,,,0.00,VWS V14.00,2013-04-29 21:35:00,
2013-04-29 16:40:00,82.3,61.8,29.65,South,180,12.0,21.0,50,0.00,,,0.00,VWS V14.00,2013-04-29 21:40:00,
2013-04-29 16:45:00,82.3,62.4,29.65,South,180,10.0,19.0,51,0.00,,,0.00,VWS V14.00,2013-04-29 21:45:00,
2013-04-29 16:50:00,82.2,62.3,29.65,South,180,12.0,20.0,51,0.00,,,0.00,VWS V14.00,2013-04-29 21:50:00,
2013-04-29 16:55:00,82.1,62.2,29.65,South,180,11.0,21.0,51,0.00,,,0.00,VWS V14.00,2013-04-29 21:55:00,
2013-04-29 17:00:00,82.4,61.9,29.65,SSW,202,10.0,17.0,50,0.00,,,0.00,VWS V14.00,2013-04-29 22:00:00,
2013-04-29 17:05:00,82.7,62.8,29.65,South,180,9.0,17.0,51,0.00,,,0.00,VWS V14.00,2013-04-29 22:05:00,
2013-04-29 17:10:00,82.7,62.2,29.65,SSW,202,11.0,18.0,50,0.00,,,0.00,VWS V14.00,2013-04-29 22:10:00,
2013-04-29 17:15:00,82.4,62.5,29.65,South,180,11.0,18.0,51,0.00,,,0.00,VWS V14.00,2013-04-29 22:15:00,
2013-04-29 17:20:00,82.3,62.4,29.65,South,180,9.0,16.0,51,0.00,,,0.00,VWS V14.00,2013-04-29 22:20:00,
2013-04-29 17:25:00,82.2,62.3,29.65,South,180,10.0,17.0,51,0.00,,,0.00,VWS V14.00,2013-04-29 22:25:00,
2013-04-29 17:30:00,82.0,62.1,29.65,South,180,11.0,18.0,51,0.00,,,0.00,VWS V14.00,2013-04-29 22:30:00,
2013-04-29 17:35:00,82.0,62.7,29.65,South,180,11.0,17.0,52,0.00,,,0.00,VWS V14.00,2013-04-29 22:35:00,
2013-04-29 17:40:00,82.0,62.7,29.65,South,180,11.0,18.0,52,0.00,,,0.00,VWS V14.00,2013-04-29 22:40:00,
2013-04-29 17:45:00,82.0,62.7,29.64,South,180,12.0,21.0,52,0.00,,,0.00,VWS V14.00,2013-04-29 22:45:00,
2013-04-29 17:50:00,81.9,62.0,29.65,South,180,11.0,18.0,51,0.00,,,0.00,VWS V14.00,2013-04-29 22:50:00,
2013-04-29 18:04:00,81.7,61.8,29.65,South,180,11.0,19.0,51,0.00,,,0.00,VWS V14.00,2013-04-29 23:04:00,
2013-04-29 18:05:00,81.2,61.9,29.64,South,191,13.0,19.0,52,0.00,,,0.00,VWS V14.00,2013-04-29 23:05:00,
2013-04-29 18:09:00,81.1,62.4,29.64,South,187,11.0,18.0,53,0.00,,,0.00,VWS V14.00,2013-04-29 23:09:00,
2013-04-29 18:14:00,80.9,62.2,29.64,South,191,11.0,18.0,53,0.00,,,0.00,VWS V14.00,2013-04-29 23:14:00,
2013-04-29 18:19:00,80.8,62.1,29.64,South,174,11.0,19.0,53,0.00,,,0.00,VWS V14.00,2013-04-29 23:19:00,
2013-04-29 18:24:00,80.6,61.9,29.64,SSW,206,6.0,15.0,53,0.00,,,0.00,VWS V14.00,2013-04-29 23:24:00,
2013-04-29 18:29:00,80.5,61.8,29.64,South,189,9.0,16.0,53,0.00,,,0.00,VWS V14.00,2013-04-29 23:29:00,
2013-04-29 18:34:00,80.4,61.7,29.64,South,176,11.0,14.0,53,0.00,,,0.00,VWS V14.00,2013-04-29 23:34:00,
2013-04-29 18:39:00,80.3,61.6,29.64,South,190,8.0,15.0,53,0.00,,,0.00,VWS V14.00,2013-04-29 23:39:00,
2013-04-29 18:44:00,80.2,61.5,29.64,SE,128,7.0,17.0,53,0.00,,,0.00,VWS V14.00,2013-04-29 23:44:00,
2013-04-29 18:49:00,80.1,62.0,29.64,South,187,7.0,16.0,54,0.00,,,0.00,VWS V14.00,2013-04-29 23:49:00,
2013-04-29 18:54:00,79.9,61.8,29.64,South,176,12.0,15.0,54,0.00,,,0.00,VWS V14.00,2013-04-29 23:54:00,
2013-04-29 18:59:00,79.7,61.1,29.64,SSE,168,7.0,15.0,53,0.00,,,0.00,VWS V14.00,2013-04-29 23:59:00,
2013-04-29 19:04:00,79.4,61.3,29.64,South,177,9.0,17.0,54,0.00,,,0.00,VWS V14.00,2013-04-30 00:04:00,
2013-04-29 19:09:00,79.0,61.0,29.64,South,177,8.0,14.0,54,0.00,,,0.00,VWS V14.00,2013-04-30 00:09:00,
2013-04-29 19:14:00,78.7,60.7,29.64,SSE,163,11.0,15.0,54,0.00,,,0.00,VWS V14.00,2013-04-30 00:14:00,
2013-04-29 19:19:00,78.4,60.4,29.64,South,175,11.0,20.0,54,0.00,,,0.00,VWS V14.00,2013-04-30 00:19:00,
2013-04-29 19:24:00,78.3,60.3,29.64,South,185,13.0,15.0,54,0.00,,,0.00,VWS V14.00,2013-04-30 00:24:00,
2013-04-29 19:29:00,78.2,59.7,29.64,South,169,14.0,15.0,53,0.00,,,0.00,VWS V14.00,2013-04-30 00:29:00,
2013-04-29 19:34:00,77.9,59.4,29.64,SSE,166,14.0,16.0,53,0.00,,,0.00,VWS V14.00,2013-04-30 00:34:00,
2013-04-29 19:39:00,77.8,59.3,29.64,South,184,9.0,15.0,53,0.00,,,0.00,VWS V14.00,2013-04-30 00:39:00,
2013-04-29 19:44:00,77.7,59.2,29.64,South,182,6.0,14.0,53,0.00,,,0.00,VWS V14.00,2013-04-30 00:44:00,
2013-04-29 19:49:00,77.5,59.0,29.64,SSE,156,7.0,14.0,53,0.00,,,0.00,VWS V14.00,2013-04-30 00:49:00,
2013-04-29 19:54:00,77.2,59.3,29.64,South,178,7.0,12.0,54,0.00,,,0.00,VWS V14.00,2013-04-30 00:54:00,
2013-04-29 19:59:00,76.9,59.5,29.64,SSE,158,8.0,11.0,55,0.00,,,0.00,VWS V14.00,2013-04-30 00:59:00,
2013-04-29 20:04:00,76.5,59.7,29.64,South,188,9.0,10.0,56,0.00,,,0.00,VWS V14.00,2013-04-30 01:04:00,
2013-04-29 20:09:00,76.2,59.9,29.64,South,176,4.0,10.0,57,0.00,,,0.00,VWS V14.00,2013-04-30 01:09:00,
2013-04-29 20:14:00,75.7,59.4,29.64,SSE,149,5.0,10.0,57,0.00,,,0.00,VWS V14.00,2013-04-30 01:14:00,
2013-04-29 20:19:00,75.4,59.6,29.65,SSE,162,12.0,12.0,58,0.00,,,0.00,VWS V14.00,2013-04-30 01:19:00,
2013-04-29 20:24:00,75.1,59.8,29.65,South,177,7.0,11.0,59,0.00,,,0.00,VWS V14.00,2013-04-30 01:24:00,
2013-04-29 20:29:00,75.1,59.8,29.65,South,174,4.0,13.0,59,0.00,,,0.00,VWS V14.00,2013-04-30 01:29:00,
2013-04-29 20:34:00,75.1,59.8,29.65,South,176,6.0,16.0,59,0.00,,,0.00,VWS V14.00,2013-04-30 01:34:00,
2013-04-29 20:39:00,75.0,59.7,29.65,South,170,9.0,13.0,59,0.00,,,0.00,VWS V14.00,2013-04-30 01:39:00,
2013-04-29 20:44:00,74.9,59.6,29.65,South,185,6.0,12.0,59,0.00,,,0.00,VWS V14.00,2013-04-30 01:44:00,
2013-04-29 20:49:00,74.9,59.6,29.65,South,180,7.0,14.0,59,0.00,,,0.00,VWS V14.00,2013-04-30 01:49:00,
2013-04-29 20:54:00,74.8,59.5,29.65,South,173,8.0,11.0,59,0.00,,,0.00,VWS V14.00,2013-04-30 01:54:00,
2013-04-29 20:59:00,74.6,59.3,29.65,South,179,5.0,11.0,59,0.00,,,0.00,VWS V14.00,2013-04-30 01:59:00,
2013-04-29 21:04:00,74.4,59.2,29.66,South,169,13.0,13.0,59,0.00,,,0.00,VWS V14.00,2013-04-30 02:04:00,
2013-04-29 21:09:00,74.2,59.0,29.66,South,185,6.0,9.0,59,0.00,,,0.00,VWS V14.00,2013-04-30 02:09:00,
2013-04-29 21:14:00,74.0,58.8,29.66,SSW,196,7.0,12.0,59,0.00,,,0.00,VWS V14.00,2013-04-30 02:14:00,
2013-04-29 21:19:00,73.9,58.7,29.66,South,175,7.0,12.0,59,0.00,,,0.00,VWS V14.00,2013-04-30 02:19:00,
2013-04-29 21:24:00,73.7,58.5,29.66,South,191,6.0,10.0,59,0.00,,,0.00,VWS V14.00,2013-04-30 02:24:00,
2013-04-29 21:29:00,73.4,58.7,29.66,South,179,5.0,8.0,60,0.00,,,0.00,VWS V14.00,2013-04-30 02:29:00,
2013-04-29 21:34:00,73.1,58.4,29.66,South,174,4.0,8.0,60,0.00,,,0.00,VWS V14.00,2013-04-30 02:34:00,
2013-04-29 21:39:00,72.8,58.6,29.66,South,174,6.0,10.0,61,0.00,,,0.00,VWS V14.00,2013-04-30 02:39:00,
2013-04-29 21:44:00,72.6,58.4,29.67,South,178,8.0,8.0,61,0.00,,,0.00,VWS V14.00,2013-04-30 02:44:00,
2013-04-29 21:49:00,72.4,58.2,29.67,South,187,4.0,9.0,61,0.00,,,0.00,VWS V14.00,2013-04-30 02:49:00,
2013-04-29 21:54:00,72.4,58.2,29.66,South,191,8.0,10.0,61,0.00,,,0.00,VWS V14.00,2013-04-30 02:54:00,
2013-04-29 21:59:00,72.3,58.1,29.67,South,183,4.0,9.0,61,0.00,,,0.00,VWS V14.00,2013-04-30 02:59:00,
2013-04-29 22:05:00,72.2,58.0,29.66,SSE,158,6.0,10.0,61,0.00,,,0.00,VWS V14.00,2013-04-30 03:05:00,
2013-04-29 22:10:00,71.8,58.5,29.66,South,180,6.0,10.0,63,0.00,,,0.00,VWS V14.00,2013-04-30 03:10:00,
2013-04-29 22:15:00,71.5,58.3,29.66,SSE,158,7.0,11.0,63,0.00,,,0.00,VWS V14.00,2013-04-30 03:15:00,
2013-04-29 22:20:00,71.4,58.2,29.66,SSE,158,7.0,11.0,63,0.00,,,0.00,VWS V14.00,2013-04-30 03:20:00,
2013-04-29 22:25:00,71.3,58.1,29.66,SSE,158,6.0,11.0,63,0.00,,,0.00,VWS V14.00,2013-04-30 03:25:00,
2013-04-29 22:30:00,71.2,58.4,29.67,SSE,158,6.0,12.0,64,0.00,,,0.00,VWS V14.00,2013-04-30 03:30:00,
2013-04-29 22:35:00,70.9,58.1,29.66,South,180,6.0,10.0,64,0.00,,,0.00,VWS V14.00,2013-04-30 03:35:00,
2013-04-29 22:40:00,70.8,58.0,29.66,SSE,158,6.0,11.0,64,0.00,,,0.00,VWS V14.00,2013-04-30 03:40:00,
2013-04-29 22:45:00,70.7,57.9,29.66,SSE,158,6.0,13.0,64,0.00,,,0.00,VWS V14.00,2013-04-30 03:45:00,
2013-04-29 22:50:00,70.5,58.2,29.66,SSE,158,6.0,11.0,65,0.00,,,0.00,VWS V14.00,2013-04-30 03:50:00,
2013-04-29 22:55:00,70.3,58.4,29.67,SSE,158,7.0,12.0,66,0.00,,,0.00,VWS V14.00,2013-04-30 03:55:00,
2013-04-29 23:00:00,70.2,58.3,29.66,SSE,158,6.0,10.0,66,0.00,,,0.00,VWS V14.00,2013-04-30 04:00:00,
2013-04-29 23:05:00,70.1,58.2,29.66,SSE,158,6.0,12.0,66,0.00,,,0.00,VWS V14.00,2013-04-30 04:05:00,
2013-04-29 23:10:00,70.1,57.8,29.66,SSE,158,8.0,16.0,65,0.00,,,0.00,VWS V14.00,2013-04-30 04:10:00,
2013-04-29 23:15:00,70.2,57.9,29.66,SSE,158,8.0,14.0,65,0.00,,,0.00,VWS V14.00,2013-04-30 04:15:00,
2013-04-29 23:20:00,70.1,57.8,29.66,SSE,158,8.0,14.0,65,0.00,,,0.00,VWS V14.00,2013-04-30 04:20:00,
2013-04-29 23:25:00,70.1,57.8,29.65,SSE,158,9.0,16.0,65,0.00,,,0.00,VWS V14.00,2013-04-30 04:25:00,
2013-04-29 23:30:00,70.1,57.4,29.65,SSE,158,9.0,17.0,64,0.00,,,0.00,VWS V14.00,2013-04-30 04:30:00,
2013-04-29 23:35:00,70.1,57.4,29.65,SSE,158,9.0,15.0,64,0.00,,,0.00,VWS V14.00,2013-04-30 04:35:00,
2013-04-29 23:40:00,70.2,57.5,29.65,SSE,158,9.0,16.0,64,0.00,,,0.00,VWS V14.00,2013-04-30 04:40:00,
2013-04-29 23:45:00,70.2,57.0,29.65,SSE,158,9.0,16.0,63,0.00,,,0.00,VWS V14.00,2013-04-30 04:45:00,
2013-04-29 23:50:00,70.2,57.0,29.65,South,180,7.0,13.0,63,0.00,,,0.00,VWS V14.00,2013-04-30 04:50:00,
2013-04-29 23:55:00,70.1,56.9,29.66,South,180,8.0,14.0,63,0.00,,,0.00,VWS V14.00,2013-04-30 04:55:00,